Powrót do katalogu

SL-14 DEB

AktywnyPO
NORAD 19234·DEBRIS·🇷🇺 Russia

Wystrzelony Oct 26, 1978 z Plesetsk Cosmodrome

Loading…

Następne Przeloty (najbliższe 24 godziny)

TLE

ŚwieżeSource: Space-Track

Epoka: Sep 14, 2026, 02:41 UTC

1 19234U 78100AD  26257.11245424  .00000829  00000-0  12541-1 0  9993
2 19234  82.4253 134.5702 0143935 233.4569 282.0466 11.80582543649390

Śledź SL-14 DEB w czasie rzeczywistym z AllMySat

Download on the App Store